WESTFORD NEEDLES, 18688

Orbit data source: Space-Track

WESTFORD NEEDLES, 18688 is space debris in LEO originally from a launch on Thu, 09 May 1963 UTC launched from the Air Force Western Test Range (AFWTR). Debris objects in space refer to the collection of defunct objects orbiting the Earth. Examples of debris include non-operational satellites, rocket bodies, and fragments generated from explosions, collisions, or faulty payload assembly.

Loading next visibility...
Identifier
18688, 1963-014DM
Orbit
LEO
Country
Flag of USUS
Related business
Manufacturer
Unknown
Mission
Spacecraft
Bus & Motor
Unknown
Mass
Unknown
Launch date (UTC)
1963-05-09 (63 years ago)
Launch vehicle
Unknown
Launch site
Air Force Western Test Range (AFWTR)
Object type
Payload
Rocket body
Debris
Shape & HBR
Unknown shape, 1.1 m
Radar Cross Section
Medium (>0.1 m² and <1 m²)

Expand to show TLE details & history
Last TLE update: 1 month ago

TLE from 1 month ago
0 WESTFORD NEEDLES
1 18688U 63014DM  25302.82158579  .00000010  00000-0  31839-2 0  9999
2 18688  87.3465 224.3236 0028206 342.4548  17.5331  8.65105689 99417
Epoch: 2025-10-29T19:43Z
TLE epoch observation values (Epoch: 2025-10-29T19:43:05.012Z)
Latitude
0.00006°
Longitude
-109.8365°
Altitude
3,620.664 km
Speed
6.323 km/s
True Right ascension
14h 57m 17s
True Declination
0° 00' 00"
Sunlit
Object was in daylight at epoch
Visualization orbit readout
Latitude
Unknown
Longitude
Unknown
Altitude
Unknown
Speed
Unknown
Apparent Right ascension
Unknown
Apparent Declination
Unknown
Sunlit
N/A
Visualization observer readout
Local Sidereal Time
20:45:56
Azimuth
Unknown
Elevation
Unknown
Doppler factor
Unknown
Orbital elements
Apogee altitude
3,671.522 km
Perigee altitude
3,614.99 km
Semi-major axis
10,021.393 km
Eccentricity
0.00282
Inclination
87.3465°
RAAN
224.3236°
Arg. of periapsis
342.4548°
True anomaly
17.6308°
Mean anomaly
17.5331°
Eccentric anomaly
17.58192°
Mean motion
2.16347 °/min
Orbital period
166.4 mins
BSTAR
0.0031839
Loading maneuver chart data...
Computing Atmospheric mass density...

Documentation

Showing up to 5 results
|